Meteo Giornale » Osservazioni meteo Gran Bretagna » Londra City AP

ore: 01:50 - Osservazioni Meteo Londra City AP
Lat. 51° 30' N Lon. 0° 30' W Alt. 5 metri s.l.m.

coperto_pioggia Europe/London

15 °C

Pioggia Debole

Temp. 24 Ore

13 °C

16 °C

Sud

18.5 Km/h

Dew point 13 °C

Umidità 87 %

Visibilità  7 Km

Il sole sorge alle ore 07:35

Il sole tramonta alle ore 17:57

Data e Ora Cielo e Fenomeni T °C DP °C Um. % Pres. hPa Vis. km Vento km/h
Oggi h: 01:50 coperto_pioggia Pioggia Debole 15 13 87 1003 7 S 18.5
Oggi h: 01:20 coperto Coperto 15 12 82 1004 10 S 18.5
Oggi h: 00:50 coperto_pioggia Pioggia Debole 15 12 82 1004 7 S 22.2
Oggi h: 00:20 coperto_pioggia Pioggia Debole 16 10 67 1005 10 S 22.2
Ieri h: 23:50 nuvoloso Nuvoloso 16 10 67 1005 10 S 22.2
Ieri h: 23:20 molto_nuvoloso Molto Nuvoloso 15 10 72 1006 10 S 18.5
Ieri h: 22:50 sereno Sereno 14 10 76 1006 10 S/SE 11.1
Ieri h: 22:20 sereno Sereno 13 9 76 1007 10 SE 11.1
Ieri h: 21:50 poco_nuvoloso Poco Nuvoloso 13 9 76 1007 10 SE 13
Ieri h: 21:20 sereno Sereno 13 9 76 1008 10 S/SE 9.3
Ieri h: 20:50 sereno Sereno 13 9 76 1008 10 SE 11.1
Ieri h: 20:20 sereno Sereno 13 8 71 1009 10 S 11.1
Ieri h: 19:50 sereno Sereno 13 8 71 1009 10 S 11.1
Ieri h: 19:20 sereno Sereno 13 8 71 1009 10 S 11.1
Ieri h: 18:50 sereno Sereno 14 7 62 1009 10 S/SO 13
Ieri h: 18:20 sereno Sereno 14 6 58 1009 10 SO 13
Ieri h: 17:50 sereno Sereno 14 6 58 1009 10 SO 16.7
Ieri h: 17:20 sereno Sereno 14 6 58 1009 10 SO 22.2
Ieri h: 16:50 sereno Sereno 14 5 54 1009 10 SO 25.9
Ieri h: 16:20 poco_nuvoloso Poco Nuvoloso 15 6 54 1008 10 O/SO 27.8
Ieri h: 15:50 nuvoloso Nuvoloso 15 7 58 1008 10 O/SO 24
Ieri h: 15:20 molto_nuvoloso Molto Nuvoloso 15 7 58 1008 10 O/SO 27.8
Ieri h: 14:50 molto_nuvoloso Molto Nuvoloso 15 8 62 1008 10 O/SO 29.6
Ieri h: 14:20 molto_nuvoloso Molto Nuvoloso 15 8 62 1007 10 O/SO 29.6
Ieri h: 13:50 coperto Coperto 14 9 71 1007 10 O/SO 25.9
Ieri h: 13:20 coperto Coperto 14 9 71 1007 10 O/SO 29.6
Ieri h: 12:50 coperto Coperto 14 9 71 1006 10 O/SO 24
Ieri h: 12:20 coperto Coperto 14 9 71 1006 10 O/SO 29.6
Ieri h: 11:50 coperto Coperto 14 9 71 1006 10 O/SO 29.6
Ieri h: 11:20 coperto Coperto 14 10 76 1005 10 O/SO 29.6
Ieri h: 10:50 coperto Coperto 13 10 81 1005 10 O/SO 37
Ieri h: 10:20 coperto Coperto 13 10 81 1004 10 O/SO 35.2
Ieri h: 09:50 coperto_pioggia Pioggia Debole 13 11 87 1003 10 O/SO 31.5
Ieri h: 09:20 coperto Coperto 13 11 87 1002 10 O/SO 31.5
Ieri h: 08:50 molto_nuvoloso Molto Nuvoloso 14 11 82 1002 10 O/SO 31.5
Ieri h: 08:20 molto_nuvoloso Molto Nuvoloso 13 11 87 1001 10 O/SO 33.3
Ieri h: 07:50 coperto_pioggia Pioggia Debole 13 11 87 1000 10 O/SO 35.2
Ieri h: 07:20 coperto Coperto 13 11 87 999 10 O/SO 33.3
Ieri h: 06:50 coperto_pioggia Pioggia Debole 13 11 87 998 5 SO 35.2
Ieri h: 06:20 coperto_pioggia Pioggia Debole 13 11 87 998 9 SO 33.3
Ieri h: 05:50 molto_nuvoloso Molto Nuvoloso 14 11 82 998 10 SO 22.2
Ieri h: 05:20 coperto_pioggia Pioggia Debole 13 11 87 997 10 S/SO 24
Ieri h: 04:50 coperto_pioggia Pioggia Debole 13 11 87 997 7 S/SO 25.9
Ieri h: 04:20 coperto_pioggia Pioggia Debole 13 11 87 997 9 S/SO 22.2
Ieri h: 03:50 coperto_pioggia Pioggia Debole 13 10 81 998 10 S 20.3
Ieri h: 03:20 coperto_pioggia Pioggia Debole 13 10 81 998 10 S 18.5
Ieri h: 02:50 poco_nuvoloso Poco Nuvoloso 14 10 76 998 10 S/SO 24